Location: Boncourt
(49.6160°N, 3.9448°E)
Time: 06:20:23
(UTC+00:00)

Cosmos 1741 Rocket - Pass Details

Date: 09 February 2023
Orbit: 761 x 781 km, 74.0° (Epoch: 30 March)

Event Time Altitude Azimuth Distance (km) Brightness Sun altitude
Rises 18:17:46 0° 209° (SSW) 3,253 7.8 -14.2°
Reaches altitude 10° 18:20:10 10° 212° (SSW) 2,331 7.0 -14.5°
Maximum altitude 18:25:26 69° 296° (WNW) 840 4.4 -15.4°
Drops below altitude 10° 18:30:46 10° 20° (NNE) 2,347 6.3 -16.3°
Sets 18:33:11 0° 23° (NNE) 3,278 7.0 -16.6°
